Satellite: CASTOR
Catalog number: 35694
Epoch time:      10230.44082147
Element set:     655
Inclination:      051.5930 deg
RA of node:       222.0149 deg
Eccentricity:    0.0004218
Arg of perigee:   308.0851 deg
Mean anomaly:     053.0105 deg
Mean motion:   16.48877011 rev/day
Decay rate:   7.179566e-02 rev/day^2
Epoch rev:            6110
Checksum:              273

Satellite: METEOR-M
Catalog number: 35865
Epoch time:      10280.72888714
Element set:     719
Inclination:      098.7439 deg
RA of node:       333.6497 deg
Eccentricity:    0.0003224
Arg of perigee:   050.3903 deg
Mean anomaly:     309.7549 deg
Mean motion:   14.21830229 rev/day
Decay rate:       1.76e-06 rev/day^2
Epoch rev:            5471
Checksum:              316

Satellite: RS-38
Catalog number: 35869
Epoch time:      10280.75843845
Element set:     733
Inclination:      098.7439 deg
RA of node:       333.7171 deg
Eccentricity:    0.0005443
Arg of perigee:   043.3578 deg
Mean anomaly:     316.8015 deg
Mean motion:   14.21990088 rev/day
Decay rate:       1.77e-06 rev/day^2
Epoch rev:            5472
Checksum:              330

/EX



_______________________________________________
Via the Keps mailing list courtesy of AMSAT-NA
http://amsat.org/mailman/listinfo/keps

--- ViaMAIL!/WC v1.60d
 * Origin: Chowdanet (401-724-4410) telnet://chowdanet.com  (1:323/120)